EHI
0 0 0 0 0 0 0 0 0 0 0 0 0 0 0 0 0 0 0 0 0 0 0 0 0 0 0 0 0 0 0 0 0 0 0 0 0 0
0 0 0 0 0 0 0 0 0 0 0 0 0 0 0 0 0 0 0 0 0 0 0 0 0 0 0 0 0 0 0 0 0 0 0 0 0 0
0 0 0 0 0 0 0 0 0 0 0 0 0 0 0 0 0 0 0 0 0 0 0 0 0 0 0 0 0 0 0 0 0 0 0 0 0 0
0 0 0 0 0 0 0 0 0 0 0 0 0 0 0 0 0 0 0 0 0 0 0 0 0 0 0 0 0 0 0 0 0 0 0 0 0 0
0 0 0 0 0 0 0 0 0 0 0 0 0 0 0 0 0 0 0 0 0 0 0 0 0 0 0 0 0 0 0 0 0 0 0 0 0 0
0 0 0 0 0 0 0 0 0 0 0 0 0 0 0 0 0 0 0 0 0 0 0 0 0 0 0 0 0 0 0 0 0 0 0 0 0 0
0 0 0 0 0 0 0 0 0 0 0 0 0 0 0 0 0 0 0 0 0 0 0 0 0 0 0 0 0 0 0 0 0 0 0 0 0 0
0 0 0 0 0 0 0 0 0 0 0 0 0 0 0 0 0 0 0 0 0 0 0 0 0 0 0 0 0 0 0 0 0 0 0 0 0 0
0 0 0 0 0 0 0 0 0 0 0 0 0 0 0 0 0 0 0 0 0 0 0 0 0 0 0 0 0 0 0 0 0 0 0 0 0 0
0 0 0 0 0 0 0 0 0 0 0 0 0 0 0 0 0 0 0 0 0 0 0 0 0 0 0 0 0 0 0 0 0 0 0 0 0 0
0 0 0 0 0 0 0 0 0 0 0 0 0 0 0 0 0 0 0 0 0 0 0 0 0 0 0 0 0 0 0 0 0 0 0 0 0 0
0 0 0 0 0 0 0 0 0 0 0 0 0 0 0 0 0 0 0 0 0 0 0 0 0 0 0 0 0 0 0 0 0 0 0 0 0 0
0 0 0 0 0 0 0 0 0 0 0 0 0 0 0 0 0 0 0 0 0 0 0 0 0 0 0 0 0 0 0 0 0 0 0 0 0 0
0 0 0 0 0 0 0 0 0 0 0 0 0 0 0 0 0 0 0 0 0 0 0 0 0 0 0 0 0 0 0 0 0 0 0 0 0 0
0 0 0 0 0 0 0 0 0 0 0 0 0 0 0 0 0 0 0 0 0 0 0 0 0 0 0 0 0 0 0 0 0 0 0 0 0 0
0 0 0 0 0 0 0 0 0 0 0 0 0 0 0 0 0 0 0 0 0 0 0 0 0 0 0 0 0 0 0 0 0 0 0 0 0 0
0 0 0 0 0 0 0 0 0 0 0 0 0 0 0 0 0 0 0 0 0 0 0 0 0 0 0 0 0 0 0 0 0 0 0 0 0 0
0 0 0 0 0 0 0 0 0 0 0 0 0 0 0 0 0 0 0 0 0 0 0 0 0 0 0 0 0 0 0 0 0 0 0 0 0 0
0 0 0 0 0 0 0 0 0 0 0 0 0 0 0 0 0 0 0 0 0 0 0 0 0 0 0 0 0 0 0 0 0 0 0 0 0 0
0 0 0 0 0 0 0 0 0 0 0 0 0 0 0 0 0 0 0 0 0 0 0 0 0 0 0 0 0 0 0 0 0 0 0 0 0 0
0 0 0 0 0 0 0 0 0 0 0 0 0 0 0 0 0 0 0 0 0 0 0 0 0 0 0 0 0 0 0 0 0 0 0 0 0 0
0 0 0 0 0 0 0 0 0 0 0 0 0 0 0 0 0 0 0 0 0 0 0 0 0 0 0 0 0 0 0 0 0 0 0 0 0 0
0 0 0 0 0 0 0 0 0 0 0 0 0 0 0 0 0 0 0 0 0 0 0 0 0 0 0 0 0 0 0 0 0 0 0 0 0 0
Wind_Speed
1 1 1 1 1 1 1 1 1 3 3 2 2 2 3 3 6 5 5 11 12 11 11 11 11 11 11 11 11 11 10 10 10 10 10 10 10 11
0 0 1 1 1 1 1 1 1 2 4 2 3 3 4 5 8 5 6 13 13 12 11 11 11 11 11 11 11 11 11 11 11 11 11 11 11 12
0 0 1 1 1 1 1 1 2 2 4 4 3 3 4 5 5 5 5 5 6 11 12 11 11 11 11 11 12 12 12 12 12 12 12 12 12 12
0 0 1 1 1 1 1 2 2 2 3 5 4 4 4 5 5 5 6 5 4 9 12 11 11 11 11 12 12 12 13 13 13 13 13 13 13 13
1 1 1 1 1 1 2 2 2 3 2 4 5 4 4 4 5 5 5 4 5 7 10 10 11 12 12 12 13 13 13 13 13 14 14 13 14 14
1 1 1 1 2 2 3 3 3 3 3 3 4 4 4 4 3 4 4 3 4 5 7 8 10 12 13 13 13 13 13 14 14 14 14 14 14 15
1 1 2 3 4 4 3 3 3 3 3 4 4 4 4 3 4 4 5 4 4 4 3 5 5 5 6 10 11 13 14 14 15 15 15 15 15 15
2 2 3 4 5 6 7 7 6 4 4 4 4 5 5 5 4 5 4 5 5 2 4 6 5 5 5 4 11 14 15 15 14 15 15 15 16 17
2 2 3 3 4 3 6 7 7 9 8 5 5 5 5 5 5 6 5 5 6 5 5 6 4 6 5 7 14 15 15 16 15 15 15 16 16 17
2 3 3 3 4 4 3 4 4 5 6 5 4 5 6 5 5 5 5 5 5 4 4 6 5 5 7 6 12 14 15 16 16 16 16 17 17 17
3 3 3 3 6 7 4 4 5 5 7 8 9 9 11 11 9 4 4 4 6 5 3 4 5 6 6 5 7 12 13 14 15 16 17 17 17 17
3 3 5 6 7 8 4 3 4 5 4 5 6 8 7 8 11 5 4 4 5 5 3 3 4 5 5 4 4 4 6 12 16 16 17 17 17 10
3 3 3 7 8 8 7 3 6 6 3 4 4 4 4 4 4 4 3 4 5 6 4 3 4 4 5 6 6 5 5 5 7 9 12 16 17 14
2 3 3 7 8 9 6 7 9 7 3 3 3 4 4 4 4 4 5 5 5 7 6 5 5 5 6 7 7 5 5 5 6 7 6 12 14 16
3 6 7 8 8 6 8 9 7 3 3 3 4 4 4 4 4 4 5 5 6 6 6 6 6 6 6 7 7 7 7 7 6 6 6 7 7 7
4 5 8 8 6 6 6 5 3 3 3 3 4 4 3 3 4 4 4 4 5 5 5 6 6 6 6 7 7 8 7 6 6 6 7 7 7 7
3 2 2 2 2 2 3 3 2 3 3 3 3 4 4 4 5 4 4 4 5 6 6 5 4 5 7 7 7 8 7 7 7 7 7 8 8 7
4 2 2 3 3 3 3 3 3 3 3 3 4 4 4 5 5 5 4 4 5 6 6 5 5 5 5 6 9 8 7 7 7 7 6 8 9 7
2 2 3 3 3 3 3 4 4 4 3 4 4 4 4 5 5 5 5 5 6 6 6 5 4 4 7 8 6 7 6 7 7 7 7 7 9 9
2 3 3 3 3 3 4 4 4 4 3 4 4 4 4 5 5 5 5 6 6 6 6 5 4 5 6 8 8 7 9 8 7 8 8 8 8 12
3 3 3 3 3 4 4 4 4 4 4 4 4 5 4 4 5 5 6 10 8 6 7 7 7 10 6 5 7 7 6 10 11 8 7 8 9 8
3 3 3 4 4 4 4 4 5 5 5 5 5 5 5 5 6 7 6 6 6 6 7 7 6 5 4 6 8 9 9 8 10 15 14 12 8 7
3 4 4 4 4 4 4 5 5 5 5 5 5 5 5 5 5 5 6 6 6 7 7 7 5 5 6 7 8 8 10 9 7 8 8 13 16 18
Wind_Direction
49 25 7 335 339 327 314 284 266 290 292 300 331 341 336 330 328 330 323 322 320 319 318 320 321 320 319 317 316 313 312 311 307 303 296 296 295 288
90 42 321 308 319 314 304 296 276 259 276 297 308 309 319 321 319 323 315 317 317 311 311 314 315 315 315 314 311 308 308 307 304 299 295 293 294 295
3 348 291 293 295 294 292 289 286 277 278 293 300 307 309 307 309 304 302 297 301 306 307 309 310 310 309 309 308 307 307 305 304 298 296 295 292 292
267 276 287 303 301 293 290 285 279 276 275 290 300 302 296 298 297 299 306 306 297 305 305 308 308 307 307 307 307 306 306 305 303 300 294 292 291 289
236 249 270 284 288 293 290 280 279 286 281 282 291 294 292 293 300 299 298 296 303 308 306 305 306 306 305 306 305 304 305 305 303 302 295 291 291 289
248 263 273 265 267 273 275 273 275 282 283 281 286 290 290 293 300 302 300 296 299 303 301 301 301 304 302 302 302 303 303 302 302 301 299 292 289 287
264 268 270 273 279 279 280 276 275 269 272 275 282 291 294 303 304 301 299 301 287 283 297 296 293 284 284 289 294 296 296 297 298 298 299 297 291 287
266 274 272 272 280 288 293 293 289 277 272 272 280 283 288 291 298 296 296 303 295 288 297 294 290 285 281 270 286 293 294 297 298 297 296 296 296 292
263 273 280 283 290 286 291 295 296 294 287 275 269 274 283 287 290 289 281 283 284 288 291 286 278 284 285 285 290 291 293 295 297 299 298 297 296 295
263 263 269 279 278 283 286 291 288 289 289 285 266 272 279 279 272 278 283 290 289 285 286 283 284 282 289 283 283 286 290 293 297 299 299 299 298 296
269 267 269 266 276 281 283 283 290 292 293 291 291 294 297 296 294 296 292 291 293 292 280 275 293 301 288 280 279 287 296 298 299 300 300 301 301 298
283 280 279 277 283 286 275 267 280 287 293 299 300 301 299 299 299 289 276 278 288 291 280 289 297 316 303 287 287 296 296 297 300 301 302 303 303 300
291 290 285 292 293 293 291 270 274 289 288 287 289 290 289 286 288 281 271 265 269 273 285 298 292 295 281 294 297 290 282 288 293 293 297 300 302 302
283 288 288 294 296 297 296 292 294 298 290 286 286 287 289 290 291 287 280 271 264 267 273 276 275 277 281 285 289 293 294 290 288 289 290 295 296 299
281 291 297 298 298 297 294 296 298 292 283 279 282 283 282 284 289 292 288 283 278 272 270 267 266 270 267 273 281 288 296 293 281 284 288 289 289 294
290 290 296 298 296 295 298 300 292 280 283 275 280 282 288 288 288 291 292 295 292 288 274 264 261 262 269 271 274 283 283 283 290 287 286 283 281 279
287 281 283 289 291 290 289 285 285 296 294 290 288 291 292 291 290 289 284 286 283 291 298 294 276 264 259 264 272 274 277 279 280 286 287 285 280 274
296 285 278 275 278 285 286 283 279 279 276 277 281 284 287 291 294 293 286 282 282 284 287 294 298 301 292 268 249 265 271 276 281 283 282 283 286 284
300 287 278 275 277 281 281 279 275 272 270 270 273 276 280 283 286 290 291 289 286 284 285 286 285 283 288 289 277 255 275 284 287 284 280 277 280 286
283 279 283 286 284 282 283 283 282 281 275 273 271 273 273 275 279 283 284 284 286 287 287 283 274 268 267 277 284 283 278 277 279 280 284 281 278 285
284 283 282 283 286 288 286 283 280 278 277 275 273 271 271 271 274 276 277 282 284 283 283 281 276 286 283 283 282 283 281 279 281 280 285 288 291 292
282 280 281 280 280 280 285 286 283 277 274 271 272 273 271 268 270 273 274 277 277 277 279 282 285 287 277 275 280 286 292 294 291 289 283 278 282 285
282 283 281 280 276 277 279 282 283 282 280 276 274 274 274 274 273 272 272 274 277 280 284 288 289 281 275 273 277 283 288 293 294 294 288 287 284 282